Other Public Products
Issued by NWS Charleston, SC

Current Version | Previous Version | Graphics & Text | Print | Product List | Glossary On
Versions: 1 2 3 4 5 6 7 8 9 10 11 12 13 14 15 16 17 18 19 20 21 22 23 24 25 26 27 28 29 30 31 32 33 34 35 36 37 38 39 40 41 42 43 44 45 46 47 48 49 50
000
FPUS82 KCHS 161827
OPUCHS

TEST...KCHS/KSAV Gateway Observations...TEST
National Weather Service Charleston SC
100 PM EST TUE JAN 16 2018

NOTE: "fair" indicates few or no clouds below 12,000 feet with no
significant weather and/or obstructions to visibility.

SCZ050-WAZ558-NCZ071-TXZ119-213-PAZ071-DCZ001-FLZ074-172-MI076-
NYZ176-178-MAZ016-IL014-TNZ027-NJZ106-GAZ044-MD014-161900-

...Gateway Observations for Charleston International...

CITY           SKY/WX    TMP DP  RH WIND       PRES   REMARKS
Chas Airport   FAIR      55  25  31 CALM      30.40F
6HR MIN TEMP:  29; 6HR MAX TEMP:  55;

Seattle        MOSUNNY   50  43  77 S12       30.19R
6HR MIN TEMP:  48; 6HR MAX TEMP:  50; 6HR PCP:  0.06;

Charlotte      PTSUNNY   46  21  37 S9        30.39F
6HR MIN TEMP:  20; 6HR MAX TEMP:  46;

Dallas DFW     MOSUNNY   25   2  37 N13       30.79F WCI  14
6HR MIN TEMP:  20; 6HR MAX TEMP:  25;

Dallas Love    MOSUNNY   21   1  41 N18G24    30.82F WCI   6
6HR MIN TEMP:  18; 6HR MAX TEMP:  23;

Philladelphia  PTSUNNY   41  28  60 W3        30.42F
6HR MIN TEMP:  30; 6HR MAX TEMP:  42; 6HR PCP: TRACE;

Wash National  CLOUDY    38  24  57 S7        30.43F WCI  33
6HR MIN TEMP:  30; 6HR MAX TEMP:  38;

Baltimore      CLOUDY    37  27  67 VRB3      30.41F
6HR MIN TEMP:  29; 6HR MAX TEMP:  37; 6HR PCP: TRACE;

Miami          FAIR      75  55  49 NE10      30.25F
6HR MIN TEMP:  62; 6HR MAX TEMP:  76;

Detroit        LGT SNOW  11   5  77 SW13      30.39F WCI  -4
6HR MIN TEMP:  11; 6HR MAX TEMP:  15; 6HR PCP: TRACE;

Newark         CLOUDY    36  29  75 E6        30.44F WCI  31
6HR MIN TEMP:  26; 6HR MAX TEMP:  36;

Laguardia      CLOUDY    33  25  72 NE10      30.44F WCI  25
6HR MIN TEMP:  26; 6HR MAX TEMP:  33;

J F K          PTSUNNY   36  29  75 E8        30.45F WCI  30
6HR MIN TEMP:  26; 6HR MAX TEMP:  36;

Boston Logan   PTSUNNY   31  21  66 SE5       30.47F WCI  26
6HR MIN TEMP:  21; 6HR MAX TEMP:  31;

Ft. Lauderdale FAIR      71  57  61 NE15      30.25F
6HR MIN TEMP:  62; 6HR MAX TEMP:  72;

Chicago O`Hare PTSUNNY   22  14  71 NW14      30.44F WCI   9
6HR MIN TEMP:  13; 6HR MAX TEMP:  22; 6HR PCP: TRACE;

Chicago Midway PTSUNNY   23  15  71 NW15      30.44F WCI  10
6HR MIN TEMP:   8; 6HR MAX TEMP:  23; 6HR PCP: TRACE;

Houston Bush   FRZ RAIN  26  23  88 N20       30.65F FOG     WCI  12
6HR MIN TEMP:  26; 6HR MAX TEMP:  33; 6HR PCP:  0.06;

Houston Hobby  LGTSLEET  28  27  96 N22       30.63F FOG     WCI  14
6HR MIN TEMP:  29; 6HR MAX TEMP:  36; 6HR PCP:  0.07;

Nashville      SNOW      14   8  77 NW7       30.58F VSB 1/2 WCI   4
6HR MIN TEMP:  13; 6HR MAX TEMP:  18; 6HR PCP:  0.09;

Atlanta        PTSUNNY   48  28  46 SW9       30.37F
6HR MIN TEMP:  32; 6HR MAX TEMP:  49;


$$

GAZ044-118-TXZ119-213-NCZ071-DCZ001-MDZ014-506-PAZ021-071-NJZ106-
NYZ176-178-MAZ106-OHZ011-021-055-MIZ076-KYZ091-ILZ014-INZ047-
MNZ060-ONZ431-161900-

...Gateway Observations for Savannah International...

CITY           SKY/WX    TMP DP  RH WIND       PRES   REMARKS
Savannah Arpt  PTSUNNY   56  27  32 SE6       30.41F
6HR MIN TEMP:  29; 6HR MAX TEMP:  56;

Atlanta        PTSUNNY   48  28  46 SW9       30.37F
6HR MIN TEMP:  32; 6HR MAX TEMP:  49;

Charlotte      PTSUNNY   46  21  37 S9        30.39F
6HR MIN TEMP:  20; 6HR MAX TEMP:  46;

Dallas DFW     MOSUNNY   25   2  37 N13       30.79F WCI  14
6HR MIN TEMP:  20; 6HR MAX TEMP:  25;

Houston Bush   FRZ RAIN  26  23  88 N20       30.65F FOG     WCI  12
6HR MIN TEMP:  26; 6HR MAX TEMP:  33; 6HR PCP:  0.06;

Wash National  CLOUDY    38  24  57 S7        30.43F WCI  33
6HR MIN TEMP:  30; 6HR MAX TEMP:  38;

Wash Dulles    PTSUNNY   35  24  64 VRB6      30.40F WCI  30
6HR MIN TEMP:  25; 6HR MAX TEMP:  36;

Baltimore      CLOUDY    37  27  67 VRB3      30.41F
6HR MIN TEMP:  29; 6HR MAX TEMP:  37; 6HR PCP: TRACE;

Philadelphia   PTSUNNY   41  28  60 W3        30.42F
6HR MIN TEMP:  30; 6HR MAX TEMP:  42; 6HR PCP: TRACE;

Newark         CLOUDY    36  29  75 E6        30.44F WCI  31
6HR MIN TEMP:  26; 6HR MAX TEMP:  36;

Laguardia      CLOUDY    33  25  72 NE10      30.44F WCI  25
6HR MIN TEMP:  26; 6HR MAX TEMP:  33;

J F K          PTSUNNY   36  29  75 E8        30.45F WCI  30
6HR MIN TEMP:  26; 6HR MAX TEMP:  36;

Boston         PTSUNNY   31  21  66 SE5       30.47F WCI  26
6HR MIN TEMP:  21; 6HR MAX TEMP:  31;

Pittsburg      LGT SNOW  25  21  85 W9        30.32F FOG     WCI  15
6HR MIN TEMP:  24; 6HR MAX TEMP:  27; 6HR PCP:  0.02;

Akron          PTSUNNY    8   0  69 W7        30.37F WCI  -3
6HR MIN TEMP:   8; 6HR MAX TEMP:  20; 6HR PCP: TRACE;

Cleveland      CLOUDY    11   3  70 SW13      30.42F WCI  -4
6HR MIN TEMP:   7; 6HR MAX TEMP:  14; 6HR PCP: TRACE;

Cincinnati     FAIR       8   0  69 W10       30.48F WCI  -6
6HR MIN TEMP:   6; 6HR MAX TEMP:   8;

Columbus       FAIR       8   1  73 W10       30.46F WCI  -7
Detroit        LGT SNOW  11   5  77 SW13      30.39F WCI  -4
6HR MIN TEMP:  11; 6HR MAX TEMP:  15; 6HR PCP: TRACE;

Chicago O`Hare PTSUNNY   22  14  71 NW14      30.44F WCI   9
6HR MIN TEMP:  13; 6HR MAX TEMP:  22; 6HR PCP: TRACE;

Minneapolis    FAIR       6  -3  66 NW5       30.67F WCI  -3
6HR MIN TEMP:  -1; 6HR MAX TEMP:   6; 6HR PCP: TRACE;

Indianapolis   FLURRIES   2  -5  72 SW12      30.51F WCI -15
6HR MIN TEMP:  -5; 6HR MAX TEMP:   2; 6HR PCP: TRACE;

Toronto Canada PTSUNNY   25  16  68 W9        30.33F WCI  15

$$




USA.gov is the U.S. government's official web portal to all federal, state and local government web resources and services.